CW9181 Weather Reports


time (UTC)temp
C
wind
direction
speed
KPH
gust
KPH
rain 1hr
cm
rain 24hr
cm
rain mn
cm
humidity
%
barometer
mb
20260509071025 17 128 1.6 6.4 0.00 0.00 0.00 79 1014.2
20260509070040 17 170 3.2 6.4 0.00 0.00 0.00 77 1014.1
20260509065026 18 143 3.2 11.3 0.00 0.00 0.00 77 1014.2
20260509064047 18 149 4.8 9.7 0.00 0.00 0.00 77 1014.2
20260509063025 18 147 3.2 9.7 0.00 0.00 0.00 76 1014.1
20260509062023 18 146 3.2 9.7 0.00 0.00 0.00 75 1014.2
20260509061020 18 144 4.8 11.3 0.00 0.00 0.00 75 1014.2
20260509060021 19 176 3.2 9.7 0.00 0.00 0.00 75 1014.3
20260509055020 19 157 4.8 9.7 0.00 0.00 0.00 75 1014.3
20260509054020 20 151 3.2 8.0 0.00 0.00 0.00 75 1014.2
20260509053020 20 164 3.2 6.4 0.00 0.00 0.00 74 1014.2
20260509052034 20 147 3.2 8.0 0.00 0.00 0.00 73 1014.1
20260509051034 20 144 0.0 4.8 0.00 0.00 0.00 72 1014.1
20260509050035 20 181 3.2 4.8 0.00 0.00 0.00 71 1014.2
20260509045029 21 193 1.6 6.4 0.00 0.00 0.00 69 1014.2
20260509044045 21 154 3.2 9.7 0.00 0.00 0.00 69 1014.1
20260509043022 21 174 3.2 6.4 0.00 0.00 0.00 69 1014.0
20260509042020 22 199 3.2 9.7 0.00 0.00 0.00 68 1013.7
20260509041041 22 145 0.0 0.0 0.00 0.00 0.00 66 1013.6
20260509040022 22 186 0.0 6.4 0.00 0.00 0.00 65 1013.5
20260509035020 23 203 1.6 9.7 0.00 0.00 0.00 63 1013.4
20260509034020 23 186 0.0 8.0 0.00 0.00 0.00 62 1013.4
20260509033020 24 215 3.2 8.0 0.00 0.00 0.00 61 1013.3
20260509032015 25 191 3.2 12.9 0.00 0.00 0.00 59 1013.3
20260509031035 25 172 4.8 11.3 0.00 0.00 0.00 57 1013.3
20260509030039 26 222 3.2 9.7 0.00 0.00 0.00 55 1013.2
20260509025033 27 224 4.8 9.7 0.00 0.00 0.00 52 1013.0
20260509024033 27 306 1.6 6.4 0.00 0.00 0.00 44 1012.9
20260509023048 28 304 0.0 6.4 0.00 0.00 0.00 42 1012.9
20260509022026 28 356 3.2 8.0 0.00 0.00 0.00 42 1012.9
20260509021043 28 336 4.8 12.9 0.00 0.00 0.00 41 1012.9
20260509020035 28 309 4.8 8.0 0.00 0.00 0.00 40 1012.9
20260509015015 28 3 4.8 11.3 0.00 0.00 0.00 41 1013.0
20260509014014 29 329 4.8 12.9 0.00 0.00 0.00 41 1013.1
20260509013019 29 289 3.2 9.7 0.00 0.00 0.00 40 1013.2
20260509012055 30 274 4.8 9.7 0.00 0.00 0.00 39 1013.2
20260509011033 30 281 3.2 14.5 0.00 0.00 0.00 35 1013.2
20260509010031 30 299 6.4 14.5 0.00 0.00 0.00 38 1013.3
20260509005033 30 324 6.4 14.5 0.00 0.00 0.00 37 1013.4
20260509004030 30 307 3.2 14.5 0.00 0.00 0.00 36 1013.4
20260509003027 30 330 8.0 16.1 0.00 0.00 0.00 36 1013.6
20260509002026 30 324 4.8 12.9 0.00 0.00 0.00 40 1013.7
20260509001026 30 274 4.8 8.0 0.00 0.00 0.00 40 1013.7
20260509000024 30 347 4.8 11.3 0.00 0.00 0.00 39 1013.6
20260508235020 30 329 4.8 9.7 0.00 0.00 0.00 40 1013.8
20260508234021 30 226 4.8 9.7 0.00 0.00 0.00 38 1014.0
20260508233023 30 10 8.0 11.3 0.00 0.00 0.00 43 1013.9
20260508232018 29 350 4.8 14.5 0.00 0.00 0.00 42 1014.0
20260508231037 29 16 1.6 12.9 0.00 0.00 0.00 44 1014.3
20260508230037 29 286 4.8 14.5 0.00 0.00 0.00 43 1014.4
20260508225055 29 265 3.2 8.0 0.00 0.00 0.00 44 1014.5
20260508223801 28 177 3.2 12.9 0.00 0.00 0.00 45 1014.8
20260508222759 28 231 8.0 14.5 0.00 0.00 0.00 44 1015.0
20260508221815 28 221 4.8 12.9 0.00 0.00 0.00 46 1014.9
20260508220816 28 254 8.0 12.9 0.00 0.00 0.00 45 1015.2
20260508215816 28 331 4.8 12.9 0.00 0.00 0.00 46 1015.3
20260508214810 27 322 4.8 12.9 0.00 0.00 0.00 48 1015.4
20260508213810 27 291 3.2 12.9 0.00 0.00 0.00 47 1015.8
20260508212803 26 241 3.2 12.9 0.00 0.00 0.00 50 1015.9
20260508211820 26 311 1.6 8.0 0.00 0.00 0.00 52 1015.9
20260508210817 26 307 4.8 9.7 0.00 0.00 0.00 52 1016.1
20260508205813 25 228 6.4 16.1 0.00 0.00 0.00 53 1016.3
20260508204829 25 280 3.2 19.3 0.00 0.00 0.00 53 1016.3
20260508203808 25 254 6.4 14.5 0.00 0.00 0.00 56 1016.5
20260508202811 25 244 3.2 11.3 0.00 0.00 0.00 53 1016.6
20260508201826 25 308 4.8 11.3 0.00 0.00 0.00 54 1016.8
20260508200805 25 238 4.8 9.7 0.00 0.00 0.00 56 1016.7
20260508195804 24 104 3.2 9.7 0.00 0.00 0.00 57 1016.7
20260508194759 24 342 3.2 12.9 0.00 0.00 0.00 57 1016.9
20260508193803 23 265 4.8 8.0 0.00 0.00 0.00 59 1017.1
20260508192803 23 214 3.2 9.7 0.00 0.00 0.00 61 1017.2
20260508191758 23 186 3.2 9.7 0.00 0.00 0.00 58 1017.2
20260508190800 23 7 3.2 9.7 0.00 0.00 0.00 59 1017.3
20260508185804 22 189 4.8 14.5 0.00 0.00 0.00 62 1017.4
20260508184823 22 168 3.2 11.3 0.00 0.00 0.00 63 1017.5
20260508183804 21 260 3.2 12.9 0.00 0.00 0.00 64 1017.6
20260508182802 21 176 3.2 11.3 0.00 0.00 0.00 64 1017.5
20260508181815 21 177 4.8 11.3 0.00 0.00 0.00 66 1017.6
20260508180819 20 162 6.4 12.9 0.00 0.00 0.00 68 1017.7
20260508175800 20 278 3.2 12.9 0.00 0.00 0.00 69 1017.8
20260508174758 20 180 6.4 16.1 0.00 0.00 0.00 70 1017.6
20260508173800 19 172 6.4 14.5 0.00 0.00 0.00 72 1017.8
20260508172802 18 108 3.2 12.9 0.00 0.00 0.00 72 1017.8
20260508171758 18 182 3.2 12.9 0.00 0.00 0.00 72 1018.0
20260508170758 18 149 4.8 11.3 0.00 0.00 0.00 72 1018.1
20260508165800 18 183 4.8 12.9 0.00 0.00 0.00 74 1018.0
20260508164813 17 121 3.2 12.9 0.00 0.00 0.00 75 1017.9
20260508163808 17 189 4.8 11.3 0.00 0.00 0.00 76 1017.9
20260508162811 17 107 9.7 14.5 0.00 0.00 0.00 75 1017.8
20260508161828 16 228 4.8 8.0 0.00 0.00 0.00 77 1017.9
20260508160829 16 157 6.4 12.9 0.00 0.00 0.00 78 1017.9
20260508155810 16 130 6.4 14.5 0.00 0.00 0.00 80 1017.9
20260508154828 15 137 6.4 11.3 0.00 0.00 0.00 82 1018.0
20260508153807 15 122 6.4 12.9 0.00 0.00 0.00 82 1018.1
20260508152828 14 191 8.0 12.9 0.00 0.00 0.00 83 1018.0
20260508151805 14 171 6.4 12.9 0.00 0.00 0.00 85 1017.9
20260508150806 13 132 3.2 12.9 0.00 0.00 0.00 85 1017.9
20260508145808 13 114 4.8 12.9 0.00 0.00 0.00 86 1018.0
20260508144805 13 172 8.0 12.9 0.00 0.00 0.00 87 1017.7
20260508143806 13 108 4.8 12.9 0.00 0.00 0.00 88 1017.6
20260508142809 12 159 8.0 12.9 0.00 0.00 0.00 90 1017.5
20260508141826 12 132 8.0 14.5 0.00 0.00 0.00 90 1017.3
20260508140806 12 167 6.4 12.9 0.00 0.00 0.00 90 1017.3
20260508135810 12 155 4.8 11.3 0.00 0.00 0.00 91 1017.1
20260508134808 12 177 4.8 14.5 0.00 0.00 0.00 91 1017.1
20260508133810 11 126 8.0 14.5 0.00 0.00 0.00 91 1017.1
20260508132810 11 132 6.4 12.9 0.00 0.00 0.00 90 1017.0
20260508131808 11 156 4.8 9.7 0.00 0.00 0.00 90 1017.1
20260508130811 12 178 4.8 11.3 0.00 0.00 0.00 90 1017.1
20260508125813 12 162 4.8 12.9 0.00 0.00 0.00 90 1017.0
20260508124809 12 164 4.8 11.3 0.00 0.00 0.00 90 1016.8
20260508123813 12 158 4.8 9.7 0.00 0.00 0.00 90 1016.7
20260508122816 12 159 3.2 11.3 0.00 0.00 0.00 90 1016.9
20260508121817 12 152 4.8 9.7 0.00 0.00 0.00 90 1016.8
20260508120817 12 130 4.8 12.9 0.00 0.00 0.00 90 1016.6
20260508115838 12 141 4.8 11.3 0.00 0.00 0.00 90 1016.7
20260508114814 12 184 3.2 9.7 0.00 0.00 0.00 90 1016.4
20260508113816 12 159 4.8 11.3 0.00 0.00 0.00 89 1016.5
20260508112758 12 128 4.8 12.9 0.00 0.00 0.00 89 1016.4
20260508111837 12 122 4.8 11.3 0.00 0.00 0.00 89 1016.4
20260508110800 12 141 4.8 12.9 0.00 0.00 0.00 89 1016.4
20260508105801 13 152 6.4 11.3 0.00 0.00 0.00 89 1016.4
20260508104822 13 170 4.8 9.7 0.00 0.00 0.00 89 1016.5
20260508103802 13 139 4.8 12.9 0.00 0.00 0.00 89 1016.5
20260508102805 13 149 3.2 8.0 0.00 0.00 0.00 88 1016.6
20260508101807 13 155 3.2 8.0 0.00 0.00 0.00 88 1016.5
20260508100812 13 143 4.8 9.7 0.00 0.00 0.00 88 1016.4
20260508095816 13 109 4.8 12.9 0.00 0.00 0.00 88 1016.3
20260508094801 13 109 3.2 9.7 0.00 0.00 0.00 88 1016.4
20260508093800 13 118 4.8 11.3 0.00 0.00 0.00 87 1016.3
20260508092803 13 114 4.8 11.3 0.00 0.00 0.00 87 1016.5
20260508091808 13 110 3.2 9.7 0.00 0.00 0.00 87 1016.4
20260508090802 13 124 1.6 9.7 0.00 0.00 0.00 86 1016.3
20260508085804 14 153 1.6 9.7 0.00 0.00 0.00 86 1016.1
20260508084808 14 134 3.2 9.7 0.00 0.00 0.00 86 1016.2
20260508083805 14 118 4.8 9.7 0.00 0.00 0.00 85 1016.2
20260508082810 15 145 1.6 9.7 0.00 0.00 0.00 85 1016.2
20260508081833 15 142 6.4 14.5 0.00 0.00 0.00 84 1016.3
20260508080808 15 179 3.2 12.9 0.00 0.00 0.00 83 1016.1
20260508075810 15 171 6.4 14.5 0.00 0.00 0.00 83 1016.1
20260508074809 16 161 6.4 12.9 0.00 0.00 0.00 83 1016.0
20260508073806 16 155 3.2 9.7 0.00 0.00 0.00 83 1015.8
20260508072802 16 162 1.6 11.3 0.00 0.00 0.00 82 1015.7
20260508071808 16 118 4.8 14.5 0.00 0.00 0.00 82 1015.7